Location: Azalea Creek
(37.1280°N, 119.2623°W)
Time: 20:00:35
(UTC+00:00)

Cosmos 292 Rocket - Pass Details

Date: 17 February 2020
Orbit: 674 x 694 km, 74.0° (Epoch: 05 April)

Event Time Altitude Azimuth Distance (km) Brightness Sun altitude
Rises 02:32:50 0° 198° (SSW) 3,045 7.5 -11.6°
Reaches altitude 10° 02:35:09 10° 199° (SSW) 2,130 6.6 -12.1°
Maximum altitude 02:39:57 84° 287° (WNW) 694 3.8 -13.0°
Drops below altitude 10° 02:44:46 10° 17° (NNE) 2,132 6.1 -14.0°
Sets 02:47:04 0° 18° (NNE) 3,048 6.9 -14.4°
